Temperature
15 15 15 16 19 21 22 22 22 22 22 21 21 22 23 24 24 23 20 20 20 20 19 19 18 17 17 17 16 16 16 16 16 16 16 16 16 15 15 15 15 15 15 15 15 15 15 15 15
15 15 15 17 20 21 22 22 21 22 21 20 20 21 22 22 21 20 19 19 19 19 19 18 18 17 17 16 16 16 16 16 16 16 16 16 15 15 15 15 15 15 15 15 15 15 14 14 14
15 15 17 19 20 22 22 21 21 21 20 20 21 21 21 21 20 19 19 19 19 19 18 18 18 17 17 16 16 16 16 16 16 16 16 15 15 15 15 15 15 15 15 14 14 14 14 14 14
14 15 17 19 20 21 21 21 20 21 20 20 20 21 20 19 18 18 19 19 19 18 18 17 17 17 17 16 16 16 16 16 15 15 15 15 15 15 15 15 14 14 14 14 14 14 14 14 14
14 17 19 19 20 20 21 20 19 21 21 20 20 21 20 18 18 18 18 18 18 18 17 17 17 17 17 16 16 16 16 15 15 15 15 15 15 15 15 14 14 14 14 14 14 14 14 14 13
16 18 19 20 20 20 20 19 19 20 20 20 20 21 20 18 18 18 18 18 17 17 17 17 17 17 16 16 16 16 15 15 15 15 15 15 15 15 14 14 14 14 14 14 14 13 14 13 13
16 18 19 19 19 19 20 19 19 20 20 20 19 20 20 18 18 18 18 17 17 17 17 16 16 16 16 16 16 15 15 15 15 15 15 14 14 14 14 14 14 14 14 14 14 13 13 13 13
15 17 18 18 18 19 19 18 18 18 19 18 18 20 20 18 17 17 17 17 17 17 16 16 16 16 16 16 16 16 15 15 15 15 14 14 14 14 14 14 14 14 14 14 13 13 13 13 13
14 17 17 18 18 19 18 18 17 16 17 17 17 17 17 17 17 16 16 16 17 17 16 16 16 16 15 15 15 15 15 15 15 14 14 14 14 14 13 13 14 14 13 13 13 13 13 13 13
15 16 17 18 18 18 17 17 17 17 17 18 17 17 16 16 16 16 16 16 16 16 16 16 16 16 15 15 15 15 15 15 14 14 14 14 13 13 13 13 13 13 13 13 13 12 12 12 12
15 16 17 16 16 15 16 16 16 16 17 18 17 16 16 15 15 15 16 16 16 16 15 16 16 16 15 15 15 15 15 15 14 14 14 14 13 13 13 13 13 13 13 12 12 12 12 12 12
15 15 15 15 14 14 15 15 16 16 16 16 15 15 15 15 15 15 15 15 15 15 15 15 15 15 15 15 15 15 15 15 14 14 14 14 13 13 13 13 13 13 12 12 12 12 12 12 12
14 15 14 14 13 14 14 14 15 15 15 15 15 15 15 15 15 15 15 15 15 15 15 15 15 15 15 15 15 15 15 15 14 14 14 14 13 13 13 13 13 12 12 12 12 12 11 11 11
14 14 14 14 14 14 14 15 15 15 15 15 14 14 14 14 14 14 14 14 15 15 15 15 15 15 15 15 15 15 15 14 14 14 14 14 13 13 13 13 13 12 12 12 12 12 11 11 11
13 14 15 15 14 14 14 15 16 15 14 15 15 14 14 14 14 14 14 14 14 15 15 15 14 14 14 15 14 14 14 14 14 14 14 13 13 13 13 13 13 12 12 12 11 11 11 11 11
13 14 15 15 14 14 14 16 17 15 15 15 15 14 14 13 13 14 14 14 14 14 14 14 14 14 14 14 14 14 14 14 14 13 13 13 13 13 13 12 12 12 12 12 11 11 11 11 11
14 15 15 15 14 14 14 15 16 15 14 15 15 14 14 13 13 13 14 14 14 14 14 14 14 14 14 14 14 13 13 13 13 13 13 13 13 12 12 12 12 12 12 11 11 11 10 10 10
15 15 15 15 15 14 14 15 16 15 14 15 14 14 14 13 13 13 13 13 13 13 13 14 13 14 14 13 13 13 13 13 13 13 13 13 12 12 12 12 12 11 11 11 11 10 10 10 10
14 14 14 15 14 13 14 15 16 15 15 15 14 14 14 13 13 13 13 13 13 13 13 13 13 13 13 13 13 13 13 13 12 12 12 12 12 12 12 11 11 11 11 11 11 10 10 10 10
13 13 14 14 13 13 13 14 15 15 15 14 14 14 13 13 12 12 12 12 12 12 13 13 13 13 13 13 13 12 12 12 12 12 12 12 12 12 11 11 11 11 11 11 10 10 10 10 9
12 13 13 13 13 12 12 15 15 15 14 13 13 13 13 12 12 12 12 12 12 12 12 12 12 12 12 12 12 12 12 12 11 11 11 11 11 11 11 11 11 11 11 11 10 10 10 9 9
13 13 12 12 12 13 12 14 16 15 14 14 13 13 12 12 12 11 11 11 12 12 12 12 12 12 12 12 12 12 11 11 11 11 11 11 11 11 11 11 11 11 10 10 10 10 10 9 9
13 12 11 11 11 12 12 12 15 15 14 14 14 13 12 11 11 11 11 11 11 12 12 12 12 12 11 11 11 11 11 11 11 10 10 10 11 11 10 10 10 10 10 10 10 10 9 9 9
11 11 11 11 11 11 13 13 15 15 14 14 14 12 11 11 10 10 10 11 11 11 11 11 11 11 11 11 11 11 11 10 10 10 10 10 10 10 10 10 10 10 10 10 10 9 9 9 9
11 12 12 12 12 13 12 12 14 15 13 13 13 12 11 10 10 10 10 10 10 11 11 11 11 11 10 10 10 10 10 10 9 9 9 9 9 9 10 10 9 9 9 9 9 9 9 9 9
11 12 12 13 13 14 12 12 14 13 12 12 11 11 10 10 10 9 9 9 10 10 10 10 10 10 10 10 10 10 9 9 9 9 8 8 9 9 9 9 9 9 9 9 9 9 9 9 9
11 11 12 11 11 11 13 13 13 13 12 12 11 11 10 10 9 9 9 9 9 9 9 9 9 9 9 9 9 9 9 8 8 8 8 8 8 8 8 8 8 9 9 9 8 8 8 8 8
11 11 10 11 11 12 13 13 14 13 13 13 12 12 11 10 9 9 9 8 9 9 9 9 9 9 9 9 8 8 8 8 8 7 7 7 8 8 8 8 8 8 8 8 8 8 8 8 8
10 10 11 11 11 11 12 14 14 13 13 12 12 11 10 9 9 9 8 8 8 8 8 8 8 8 8 8 8 7 7 7 7 7 7 7 7 7 7 7 7 7 8 8 7 7 7 7 7
11 11 11 10 10 10 11 13 13 13 12 12 11 10 9 9 8 8 8 8 8 8 8 8 8 7 8 7 7 7 7 7 7 6 7 7 6 6 6 6 6 7 7 7 7 7 7 7 7
Wind_Speed
3 4 3 3 5 6 8 6 4 3 2 1 3 4 4 4 3 1 4 3 2 3 8 12 12 12 12 12 12 11 11 11 11 11 11 11 10 10 10 10 10 9 9 9 9 9 10 10 10
4 4 4 4 6 9 7 6 7 5 2 2 3 5 5 3 2 3 3 3 1 3 7 11 11 11 12 11 11 11 11 11 11 11 10 10 10 10 10 10 9 9 8 8 8 8 9 9 10
5 4 4 4 7 9 4 2 3 3 3 3 3 3 4 3 2 2 5 3 0 3 6 9 10 11 12 12 11 10 11 11 11 11 10 11 10 10 10 9 9 9 8 7 7 8 8 9 9
5 4 4 7 12 9 6 2 2 4 3 3 4 3 2 1 3 5 5 2 0 2 6 7 9 11 11 11 11 11 11 11 11 11 11 11 11 10 10 10 9 9 8 7 7 7 8 8 9
4 4 7 10 13 9 8 7 6 6 4 3 5 6 5 2 3 5 4 2 1 2 5 7 9 10 11 11 11 11 11 11 11 11 11 11 11 11 10 10 9 9 9 8 8 7 8 8 8
5 5 8 12 12 9 8 7 8 9 8 7 7 8 6 3 4 5 4 2 2 2 4 6 9 10 11 11 11 11 11 11 11 11 11 11 12 11 11 11 11 10 10 9 9 8 9 8 8
6 6 9 10 9 9 7 5 7 8 9 8 6 8 6 3 4 5 4 3 3 3 4 6 9 10 11 11 11 11 11 11 11 11 11 11 11 11 11 11 11 11 11 11 10 10 9 9 9
4 5 8 9 9 8 4 4 5 8 9 6 6 7 6 4 5 5 5 4 4 4 5 6 8 9 10 12 12 11 11 11 12 12 11 11 11 12 12 11 11 11 11 11 11 11 10 10 9
4 7 10 9 8 5 3 5 6 7 9 9 9 10 10 7 6 6 5 5 5 5 6 7 8 8 9 10 11 12 12 12 11 12 12 11 11 12 12 12 11 11 11 11 12 12 11 10 10
7 9 10 6 6 6 6 8 9 7 11 12 11 10 9 8 7 7 7 7 7 7 7 7 8 8 8 8 9 10 11 11 12 11 11 11 11 10 10 10 11 12 12 11 12 12 12 12 10
7 9 7 7 7 8 10 11 9 11 13 12 12 11 9 9 8 8 8 8 7 7 7 7 8 8 8 6 7 7 8 9 11 11 11 10 9 8 9 8 9 11 12 11 10 11 11 11 9
7 9 8 7 6 8 12 11 12 15 15 13 13 12 11 11 10 9 9 8 7 7 7 7 8 8 9 7 6 7 6 6 7 9 11 9 7 7 7 7 8 8 8 9 9 8 10 11 11
11 9 9 10 11 12 14 16 16 17 16 13 12 11 11 11 10 9 9 8 7 7 7 7 7 8 8 8 7 7 8 7 8 8 10 10 8 8 7 7 7 8 8 8 8 9 10 10 11
6 8 10 11 12 10 13 15 13 14 10 10 10 11 10 9 9 9 8 8 8 8 7 7 8 8 8 8 8 7 8 8 8 8 10 11 10 8 8 8 7 8 8 9 9 10 9 9 9
5 8 11 9 8 6 8 13 12 11 9 11 11 10 9 9 9 8 8 8 8 7 7 7 7 8 8 9 9 7 7 7 7 8 10 12 11 10 9 8 8 8 9 10 9 10 8 8 9
5 7 7 5 5 5 7 12 8 7 9 12 11 10 9 8 8 7 7 7 7 6 6 6 5 7 7 7 8 7 7 7 7 7 9 11 12 12 10 9 9 8 8 8 8 8 8 8 9
6 7 9 6 4 5 7 13 12 10 11 12 10 9 8 7 6 5 5 5 5 5 5 5 5 6 6 6 6 7 7 7 7 7 8 10 12 12 11 9 9 9 8 8 8 9 8 9 9
7 8 8 9 4 7 12 17 17 12 11 11 9 7 6 6 5 4 4 4 4 4 4 4 4 5 5 5 5 5 6 6 7 7 8 10 10 12 11 10 11 10 8 9 9 10 9 9 8
7 9 12 11 7 9 14 18 18 13 10 9 8 7 5 5 4 3 3 3 3 3 3 3 4 3 3 4 5 5 6 6 6 7 9 10 11 11 11 10 11 10 10 11 11 10 11 10 8
10 12 13 9 5 8 13 18 15 10 8 6 6 5 5 4 3 3 2 2 2 2 3 3 3 3 4 4 5 5 5 5 6 7 8 10 10 11 10 11 11 11 11 13 12 11 9 9 8
12 13 12 10 10 6 9 11 7 4 4 4 4 4 3 3 4 3 2 2 2 2 3 3 3 4 4 4 4 4 4 5 5 6 7 8 10 11 11 12 12 11 11 11 13 12 13 10 10
11 8 10 10 8 6 4 8 7 5 5 5 4 3 3 3 3 3 3 3 3 3 3 4 4 4 4 4 4 5 6 6 7 6 7 8 9 10 11 12 12 12 11 12 13 13 12 12 10
6 3 6 8 8 8 7 7 8 4 6 5 3 2 2 2 3 4 3 4 4 3 3 4 4 5 4 4 5 5 6 7 6 6 8 8 8 10 11 11 12 12 12 13 13 13 13 12 12
4 2 3 4 5 7 8 8 7 4 5 4 2 1 1 2 3 3 3 4 4 4 4 4 5 5 5 5 6 6 7 8 8 8 7 7 7 8 10 10 11 12 12 13 13 13 14 13 14
6 5 4 4 5 6 3 7 8 2 2 4 3 2 2 2 2 3 4 4 4 5 5 5 6 6 6 6 6 7 8 8 9 9 8 8 7 7 9 9 10 11 12 13 13 13 14 15 15
9 8 6 5 5 4 4 8 5 1 2 3 3 3 1 1 2 4 5 5 5 5 6 6 6 6 6 6 6 6 7 7 7 9 8 9 8 9 9 10 10 11 12 13 13 12 14 14 15
7 8 5 4 4 6 7 6 6 4 4 3 2 1 1 2 3 4 5 6 6 6 6 6 6 6 6 5 6 6 6 7 8 8 8 8 8 8 10 11 11 11 12 12 12 11 14 14 14
5 5 5 6 5 7 7 8 6 6 5 4 3 2 3 4 4 5 6 6 6 6 6 6 6 6 6 5 5 4 5 6 7 7 8 9 9 9 10 10 11 11 11 12 12 12 13 13 14
8 7 7 6 5 6 7 6 3 6 4 4 3 3 4 5 5 6 6 7 7 7 6 6 6 6 5 5 5 5 5 6 6 7 8 8 9 9 9 10 11 11 11 11 12 13 13 14 14
10 11 11 8 8 7 7 8 2 5 5 4 5 5 6 6 6 6 6 7 7 7 7 7 6 6 6 5 5 5 5 6 6 7 8 8 9 9 9 9 10 11 11 11 12 13 13 14 15
Wind_Direction
182 182 192 205 220 228 237 228 228 214 211 252 271 259 265 268 277 359 37 22 20 152 167 172 177 176 176 177 176 173 170 167 167 168 168 167 166 165 163 162 158 154 151 150 148 145 144 143 140
176 176 194 215 233 229 230 226 225 233 276 301 259 250 253 255 294 339 11 11 18 152 167 173 172 179 177 177 177 177 174 172 170 172 173 173 172 171 169 165 162 157 155 153 152 149 146 146 145
170 200 209 216 229 234 226 189 225 249 279 270 267 260 271 276 319 341 8 5 107 157 170 169 171 180 180 179 177 179 179 177 175 176 177 178 178 177 176 172 168 161 158 159 158 156 151 148 149
182 189 215 232 233 235 248 238 293 272 255 252 275 265 244 310 330 348 356 356 208 172 181 172 178 185 185 184 181 181 182 184 183 182 182 183 184 183 181 180 175 168 163 162 164 163 162 159 156
203 208 219 232 239 240 247 265 271 273 272 265 275 277 264 255 326 335 341 321 264 198 194 184 186 191 190 189 188 185 186 188 189 190 190 190 190 189 187 184 180 177 175 175 175 177 176 175 171
192 214 228 236 236 241 247 255 260 265 270 274 278 276 266 252 317 333 328 294 268 229 209 197 194 201 198 195 194 193 192 192 194 196 197 197 197 195 192 190 186 186 187 187 189 187 185 184 184
212 217 237 245 248 246 244 248 253 268 270 272 279 277 264 259 333 330 309 287 268 241 220 213 206 206 207 202 199 197 198 198 198 200 202 204 203 201 200 194 192 195 197 196 198 197 195 191 191
223 225 237 239 244 247 239 250 262 275 277 282 269 267 275 316 332 317 305 288 267 246 230 223 218 213 212 209 202 201 202 203 204 206 205 205 206 206 204 200 197 199 203 203 203 203 204 201 200
208 228 234 232 237 242 240 265 275 281 270 265 258 270 292 308 303 296 287 275 264 251 241 231 227 222 220 219 208 205 205 205 207 211 207 206 213 213 209 209 200 203 206 207 209 208 210 207 204
207 229 236 239 247 262 273 281 290 278 272 268 263 267 279 281 280 276 274 270 262 252 241 233 230 227 223 222 217 214 213 212 214 219 214 216 221 221 218 203 200 205 207 210 213 213 212 213 211
214 236 246 248 261 276 278 279 276 273 273 275 283 288 288 284 277 271 270 267 264 260 248 240 234 230 225 222 223 218 216 216 219 220 219 219 222 221 218 209 202 209 211 215 210 212 219 218 217
228 243 250 257 268 274 278 279 273 263 269 286 287 287 285 280 273 267 268 269 267 261 251 245 239 234 229 225 226 223 218 217 218 219 218 218 219 221 219 217 216 216 216 218 218 221 223 225 222
233 249 255 263 269 271 274 270 273 270 273 278 279 276 277 276 272 270 269 267 263 260 253 244 241 237 232 227 227 228 221 219 219 219 219 218 219 223 224 224 220 222 222 219 222 225 227 228 228
239 252 265 270 268 267 267 269 263 264 269 272 275 275 274 273 273 271 268 265 261 258 254 247 241 239 235 229 226 229 227 222 222 221 222 221 222 224 226 227 225 226 225 226 227 229 231 233 231
253 263 266 257 257 260 274 268 247 258 268 276 278 275 269 270 269 267 269 267 265 263 259 252 246 240 235 235 233 234 231 225 222 223 225 223 225 225 227 229 228 227 226 227 230 232 233 236 234
234 245 252 241 252 249 259 269 261 269 279 281 280 275 270 266 263 268 270 268 267 263 258 255 249 240 233 235 238 238 234 226 224 227 228 227 228 227 228 230 231 229 225 223 227 230 230 233 235
220 244 255 266 238 249 252 272 279 284 282 279 275 273 267 264 262 268 273 269 264 260 256 250 246 241 234 235 239 242 232 227 228 230 230 230 230 230 229 232 233 229 227 226 227 229 229 235 237
233 248 256 265 262 267 268 272 282 285 279 273 270 264 259 258 259 264 272 268 261 260 258 250 242 240 232 228 237 240 234 232 232 232 232 233 232 232 233 234 234 230 227 227 227 228 229 235 238
253 257 266 273 285 281 273 279 284 284 274 266 259 253 250 259 263 266 268 263 257 257 257 251 246 239 232 232 230 229 234 236 236 235 236 235 236 235 235 236 234 230 228 230 230 229 231 231 233
242 258 269 282 282 284 286 285 282 272 259 254 249 244 247 259 271 275 265 257 254 256 253 248 251 248 242 243 236 235 242 240 243 241 242 239 238 237 236 236 235 232 231 232 231 228 230 231 221
240 247 263 282 304 273 292 283 257 247 232 240 242 243 253 254 272 280 281 276 265 258 256 255 248 248 251 253 245 241 245 243 242 242 243 241 241 238 235 238 238 235 233 233 231 227 227 229 224
248 243 255 272 285 279 288 292 271 246 240 238 235 238 249 260 283 294 302 309 296 285 273 262 256 250 253 253 247 241 246 250 254 251 248 248 247 246 241 239 239 238 236 235 234 230 230 230 229
239 235 242 257 263 274 247 256 272 238 244 232 220 243 263 284 309 306 303 304 308 311 303 288 276 265 262 256 248 247 254 258 261 258 257 255 250 247 246 244 242 241 239 238 235 232 230 229 230
197 201 236 232 239 256 239 234 270 235 230 210 200 245 284 320 332 324 319 317 318 324 317 307 295 285 278 267 253 250 257 260 258 259 259 260 258 253 250 247 245 244 241 240 237 234 231 232 232
198 210 235 231 225 244 183 235 256 261 233 227 232 254 291 338 349 340 332 329 326 325 319 306 301 296 293 279 263 256 259 262 258 258 258 260 260 259 258 255 251 248 245 243 240 237 236 234 233
203 214 228 251 256 263 224 241 255 269 251 238 240 248 292 6 360 345 335 326 324 323 318 313 305 299 298 290 278 267 264 264 262 258 259 258 258 259 261 258 257 257 253 248 243 240 239 238 235
191 214 239 259 274 270 251 254 269 234 221 208 211 229 304 342 349 342 337 332 324 320 319 317 308 302 298 295 289 281 273 267 268 269 264 262 262 264 263 261 260 259 257 252 249 244 242 240 237
230 185 185 214 241 254 255 254 241 209 214 214 225 283 317 322 328 332 331 334 329 323 320 320 315 305 298 296 292 289 285 280 277 276 276 269 267 268 266 264 262 261 259 255 252 248 245 243 240
187 195 210 217 238 252 264 259 235 211 217 240 263 295 306 306 315 323 325 329 330 330 327 322 320 316 310 306 299 294 293 291 287 283 280 280 274 270 268 266 265 263 262 258 254 250 245 243 244
222 216 208 221 229 235 259 267 250 232 242 260 281 296 301 305 310 314 319 324 328 332 331 325 321 318 311 306 300 298 298 295 290 289 290 287 283 277 272 269 266 265 264 262 258 255 249 245 244
Height
1510 1512 1514 1516 1514 1509 1502 1497 1498 1499 1499 1500 1501 1500 1497 1496 1496 1501 1500 1497 1496 1495 1495 1495 1497 1498 1499 1501 1503 1504 1505 1506 1507 1508 1509 1510 1510 1511 1512 1512 1513 1514 1514 1515 1515 1516 1516 1516 1516
1510 1512 1516 1515 1508 1504 1498 1495 1498 1498 1499 1501 1501 1500 1498 1497 1499 1499 1497 1496 1495 1495 1495 1496 1496 1498 1499 1500 1502 1503 1505 1506 1507 1508 1508 1509 1510 1511 1512 1512 1513 1513 1514 1514 1515 1515 1516 1516 1516
1510 1512 1515 1510 1503 1497 1494 1495 1497 1499 1500 1501 1500 1499 1498 1498 1499 1498 1497 1495 1495 1495 1495 1496 1496 1497 1499 1500 1501 1503 1504 1505 1506 1507 1508 1509 1510 1510 1511 1512 1512 1513 1513 1514 1514 1515 1515 1515 1516
1511 1513 1513 1507 1500 1496 1495 1496 1499 1499 1499 1500 1500 1498 1498 1499 1498 1497 1496 1495 1495 1495 1495 1495 1496 1497 1498 1499 1500 1502 1503 1504 1506 1506 1507 1508 1509 1509 1510 1511 1512 1512 1512 1513 1514 1514 1515 1515 1515
1510 1511 1507 1502 1497 1495 1497 1499 1500 1498 1498 1499 1499 1496 1497 1497 1496 1496 1495 1494 1494 1495 1495 1495 1495 1496 1497 1498 1499 1501 1502 1503 1504 1505 1506 1507 1508 1508 1509 1510 1510 1511 1511 1512 1513 1513 1514 1514 1515
1511 1507 1502 1496 1494 1495 1497 1499 1500 1498 1497 1498 1498 1496 1495 1496 1495 1494 1494 1493 1493 1493 1494 1494 1494 1495 1496 1497 1498 1499 1500 1502 1503 1504 1505 1506 1506 1507 1508 1508 1509 1510 1510 1511 1511 1512 1512 1513 1513
1508 1504 1498 1495 1495 1495 1496 1499 1498 1497 1496 1496 1497 1495 1493 1494 1493 1493 1492 1492 1492 1492 1492 1492 1493 1494 1494 1495 1496 1498 1499 1500 1501 1502 1503 1504 1505 1506 1506 1507 1507 1508 1509 1509 1510 1510 1511 1511 1512
1507 1504 1499 1496 1495 1494 1496 1498 1498 1497 1495 1496 1496 1493 1491 1493 1491 1491 1490 1490 1490 1490 1490 1490 1491 1492 1493 1493 1494 1496 1497 1498 1499 1500 1501 1502 1503 1504 1504 1505 1505 1506 1507 1507 1508 1509 1509 1510 1510
1506 1505 1496 1494 1494 1493 1497 1497 1497 1497 1496 1494 1494 1493 1492 1490 1489 1489 1488 1487 1487 1487 1487 1488 1488 1489 1490 1491 1492 1493 1494 1496 1497 1498 1499 1500 1500 1501 1502 1502 1503 1504 1504 1505 1505 1506 1507 1507 1508
1504 1499 1493 1494 1495 1494 1496 1496 1496 1495 1492 1490 1490 1490 1489 1488 1487 1486 1485 1484 1484 1484 1484 1485 1485 1486 1487 1488 1489 1490 1491 1492 1494 1495 1496 1497 1498 1499 1500 1500 1500 1501 1502 1502 1503 1503 1504 1505 1506
1501 1496 1495 1496 1497 1497 1496 1495 1494 1493 1488 1487 1487 1487 1486 1485 1484 1483 1483 1482 1481 1481 1481 1482 1482 1483 1484 1485 1486 1487 1488 1489 1490 1492 1493 1494 1495 1495 1496 1496 1497 1498 1498 1499 1500 1500 1501 1502 1502
1499 1496 1497 1496 1497 1496 1494 1492 1491 1489 1486 1486 1485 1484 1483 1482 1481 1480 1479 1479 1478 1478 1478 1478 1479 1480 1480 1481 1482 1483 1484 1485 1486 1488 1489 1490 1491 1492 1492 1493 1494 1494 1495 1495 1496 1497 1498 1498 1499
1497 1495 1495 1495 1495 1494 1492 1490 1488 1483 1482 1482 1481 1480 1479 1478 1477 1477 1476 1475 1475 1475 1475 1475 1475 1476 1477 1477 1478 1479 1480 1481 1482 1484 1485 1486 1487 1488 1489 1489 1490 1490 1491 1492 1492 1493 1494 1494 1495
1494 1494 1493 1492 1491 1490 1488 1484 1484 1478 1479 1478 1477 1476 1475 1474 1473 1472 1472 1471 1471 1471 1471 1471 1472 1472 1473 1473 1474 1475 1476 1477 1478 1479 1480 1482 1483 1484 1484 1485 1485 1486 1487 1487 1488 1489 1490 1490 1491
1495 1493 1489 1487 1487 1486 1486 1477 1475 1475 1476 1474 1473 1471 1470 1470 1469 1468 1468 1467 1467 1467 1468 1468 1468 1468 1469 1470 1470 1471 1471 1472 1473 1475 1476 1478 1479 1479 1480 1480 1481 1481 1482 1483 1484 1484 1485 1486 1486
1492 1489 1484 1482 1484 1484 1485 1472 1470 1472 1471 1469 1468 1467 1466 1465 1465 1464 1464 1464 1464 1464 1464 1464 1464 1464 1465 1466 1466 1467 1467 1468 1469 1470 1472 1473 1474 1475 1475 1476 1476 1477 1477 1478 1478 1479 1480 1480 1481
1487 1483 1480 1479 1480 1481 1480 1470 1466 1468 1468 1465 1464 1463 1462 1461 1461 1460 1460 1460 1460 1460 1460 1460 1460 1460 1461 1462 1462 1463 1463 1463 1464 1466 1467 1468 1469 1470 1471 1471 1471 1472 1472 1473 1473 1474 1474 1475 1476
1479 1479 1478 1477 1476 1478 1475 1467 1462 1463 1463 1461 1460 1459 1459 1458 1458 1457 1457 1457 1457 1457 1457 1457 1457 1457 1457 1458 1458 1459 1459 1459 1460 1461 1462 1463 1464 1465 1465 1465 1466 1467 1467 1467 1467 1468 1469 1470 1471
1480 1479 1477 1474 1475 1476 1469 1463 1458 1458 1458 1456 1456 1456 1455 1455 1455 1454 1454 1453 1454 1454 1454 1454 1454 1453 1454 1454 1454 1454 1454 1455 1455 1456 1457 1457 1458 1459 1460 1460 1461 1461 1461 1461 1462 1462 1463 1464 1465
1481 1480 1475 1472 1475 1474 1466 1459 1453 1453 1453 1453 1453 1453 1453 1452 1452 1451 1450 1451 1451 1451 1451 1451 1451 1451 1451 1450 1450 1451 1450 1451 1451 1451 1452 1452 1453 1453 1454 1454 1455 1455 1455 1456 1456 1456 1457 1458 1459
1478 1476 1473 1473 1472 1471 1468 1452 1448 1449 1451 1451 1451 1451 1450 1450 1450 1449 1448 1448 1448 1448 1448 1448 1448 1448 1448 1447 1447 1447 1447 1446 1446 1446 1446 1446 1447 1447 1447 1448 1448 1449 1449 1449 1450 1450 1451 1451 1452
1473 1472 1474 1475 1474 1466 1469 1456 1442 1444 1446 1447 1448 1448 1448 1448 1447 1447 1446 1446 1445 1445 1445 1445 1445 1445 1445 1444 1443 1443 1442 1441 1441 1441 1440 1441 1441 1441 1441 1442 1442 1442 1443 1443 1443 1444 1444 1445 1445
1469 1472 1474 1473 1472 1470 1464 1464 1440 1440 1441 1442 1444 1445 1445 1446 1445 1444 1444 1443 1443 1442 1442 1442 1441 1441 1441 1440 1439 1438 1438 1437 1436 1436 1436 1435 1435 1435 1435 1435 1435 1435 1435 1436 1436 1437 1437 1438 1438
1471 1473 1473 1472 1471 1467 1456 1457 1438 1435 1436 1438 1441 1443 1444 1444 1443 1443 1442 1441 1440 1439 1439 1438 1438 1437 1436 1436 1435 1434 1433 1432 1431 1431 1430 1429 1429 1429 1428 1428 1429 1428 1428 1428 1429 1429 1430 1430 1431
1470 1469 1467 1464 1462 1452 1454 1454 1438 1434 1437 1439 1440 1442 1442 1442 1442 1441 1440 1439 1438 1437 1436 1435 1434 1433 1432 1431 1430 1429 1428 1427 1426 1425 1425 1424 1423 1422 1422 1422 1421 1421 1421 1421 1421 1421 1422 1422 1423
1464 1463 1462 1458 1449 1444 1453 1448 1434 1436 1439 1440 1440 1440 1440 1440 1440 1439 1438 1437 1435 1434 1433 1431 1430 1428 1427 1426 1425 1423 1423 1422 1421 1420 1420 1418 1417 1416 1415 1415 1414 1414 1414 1414 1414 1413 1414 1415 1415
1462 1461 1459 1461 1461 1458 1443 1439 1436 1436 1436 1438 1438 1438 1438 1438 1438 1437 1436 1434 1432 1431 1429 1428 1426 1424 1423 1421 1420 1418 1417 1417 1415 1414 1414 1413 1412 1411 1410 1409 1408 1407 1407 1406 1406 1405 1406 1407 1406
1459 1458 1462 1461 1459 1449 1437 1436 1430 1431 1432 1434 1436 1437 1437 1437 1436 1435 1434 1432 1430 1428 1426 1424 1422 1420 1419 1417 1415 1413 1412 1411 1410 1409 1407 1406 1405 1404 1403 1402 1401 1400 1399 1399 1399 1398 1398 1398 1398
1458 1459 1455 1453 1453 1448 1439 1430 1424 1428 1430 1432 1433 1435 1435 1435 1434 1433 1431 1429 1427 1425 1423 1421 1418 1416 1414 1413 1411 1409 1408 1406 1405 1403 1402 1400 1399 1398 1396 1395 1394 1393 1392 1391 1391 1391 1391 1391 1391
1449 1448 1449 1452 1451 1449 1441 1432 1425 1428 1430 1432 1433 1433 1433 1433 1432 1430 1428 1426 1424 1422 1420 1417 1415 1412 1410 1408 1407 1405 1403 1401 1400 1398 1396 1394 1392 1391 1389 1388 1387 1386 1385 1385 1384 1384 1384 1383 1383